EW1631 Weather Reports


time (UTC)temp
F
wind
direction
speed
knots
gust
knots
rain 1hr
in
rain 24hr
in
rain mn
in
humidity
%
barometer
mb
20260504023007 71 256 22.6 35.6 0.00 0.00 0.00 43 1004.5
20260504021503 72 297 21.7 33.0 0.00 0.00 0.00 41 1004.0
20260504020048 74 298 21.7 35.6 0.00 0.00 0.00 40 1003.5
20260504014542 75 301 23.5 33.0 0.00 0.00 0.00 39 1003.6
20260504013018 76 284 16.5 27.8 0.00 0.00 0.00 36 1003.9
20260504011514 82 332 15.6 23.5 0.00 0.00 0.00 29 1003.6
20260504010057 87 219 3.5 12.2 0.00 0.00 0.00 15 1003.4
20260504004556 87 282 5.2 9.6 0.00 0.00 0.00 18 1003.2
20260504003037 88 291 5.2 14.8 0.00 0.00 0.00 20 1002.9
20260504001547 88 257 5.2 13.0 0.00 0.00 0.00 22 1003.3
20260504000019 87 286 10.4 17.4 0.00 0.00 0.00 25 1003.1
20260503234518 88 299 9.6 15.6 0.00 0.00 0.00 24 1003.0
20260503233100 87 287 13.0 20.0 0.00 0.00 0.00 26 1002.9
20260503231600 87 302 12.2 22.6 0.00 0.00 0.00 26 1002.6
20260503230047 88 283 13.0 22.6 0.00 0.00 0.00 26 1002.8
20260503224545 90 301 10.4 18.2 0.00 0.00 0.00 23 1002.8
20260503223043 92 246 6.1 12.2 0.00 0.00 0.00 21 1002.9
20260503221555 93 270 7.0 15.6 0.00 0.00 0.00 21 1003.0
20260503220042 91 346 7.0 18.2 0.00 0.00 0.00 22 1003.3
20260503214539 95 212 7.0 11.3 0.00 0.00 0.00 18 1003.4
20260503213041 95 225 3.5 14.8 0.00 0.00 0.00 13 1003.7
20260503211538 95 162 9.6 21.7 0.00 0.00 0.00 13 1003.6
20260503210018 95 165 12.2 20.0 0.00 0.00 0.00 13 1003.7
20260503204523 95 189 8.7 18.2 0.00 0.00 0.00 12 1003.8
20260503203100 95 200 14.8 19.1 0.00 0.00 0.00 11 1003.9
20260503201558 96 198 14.8 20.0 0.00 0.00 0.00 11 1004.2
20260503200038 95 173 13.0 19.1 0.00 0.00 0.00 10 1004.3
20260503194540 95 186 10.4 19.1 0.00 0.00 0.00 11 1004.3
20260503193018 96 203 13.0 21.7 0.00 0.00 0.00 10 1004.6
20260503191517 96 181 14.8 18.2 0.00 0.00 0.00 10 1004.6
20260503190055 95 221 3.5 13.0 0.00 0.00 0.00 12 1005.0
20260503184551 95 126 4.3 11.3 0.00 0.00 0.00 12 1005.2
20260503183031 94 130 7.8 12.2 0.00 0.00 0.00 12 1005.7
20260503181526 93 86 4.3 11.3 0.00 0.00 0.00 13 1005.8
20260503180004 92 132 1.7 7.8 0.00 0.00 0.00 12 1006.1
20260503174602 92 125 3.5 7.0 0.00 0.00 0.00 12 1006.2
20260503173039 91 111 4.3 7.0 0.00 0.00 0.00 12 1006.1
20260503171544 90 128 2.6 7.8 0.00 0.00 0.00 13 1006.2